ORBCOMM-X 1 21576U 91050C 25343.42138279 .00000671 00000+0 21120-3 0 9991 2 21576 98.3234 46.2723 0004039 33.4567 326.6879 14.43431776807398 ORBCOMM FM01 1 23545U 95017A 25343.47040499 .00010913 00000+0 10546-2 0 9996 2 23545 69.9633 356.2282 0003551 341.7245 18.3783 14.93005974638644 ORBCOMM FM02 1 23546U 95017B 25343.48168557 .00013341 00000+0 12378-2 0 9997 2 23546 69.9642 14.8477 0004521 0.1266 359.9891 14.94545039638315 ORBCOMM FM08 1 25112U 97084A 25343.44394649 .00003133 00000+0 89989-3 0 9994 2 25112 45.0123 246.1292 0006759 48.3958 311.7472 14.46576847466742 ORBCOMM FM10 1 25113U 97084B 25343.45230667 .00002869 00000+0 83207-3 0 9997 2 25113 45.0138 248.7926 0005726 15.1174 344.9848 14.46325315641883 ORBCOMM FM11 1 25114U 97084C 25343.14234587 .00002006 00000+0 59702-3 0 9995 2 25114 45.0126 251.2389 0006544 15.4191 344.6859 14.46062957466798 ORBCOMM FM12 1 25115U 97084D 25343.44777628 .00002702 00000+0 78980-3 0 9999 2 25115 45.0129 249.5042 0005655 13.7962 346.3044 14.46090461466636 ORBCOMM FM09 1 25116U 97084E 25343.15109233 .00001804 00000+0 54238-3 0 9991 2 25116 45.0136 252.0516 0006932 3.1473 356.9421 14.45930227466794 ORBCOMM FM05 1 25117U 97084F 25343.46520529 .00003075 00000+0 88213-3 0 9993 2 25117 45.0135 246.0639 0003303 10.8969 349.1954 14.46691471465988 ORBCOMM FM06 1 25118U 97084G 25343.47193911 .00002892 00000+0 82943-3 0 9996 2 25118 45.0125 245.5599 0002241 6.5560 162.9862 14.46851523466904 ORBCOMM FM07 1 25119U 97084H 25343.45181997 .00002808 00000+0 80625-3 0 9998 2 25119 45.0121 246.4070 0004122 10.1885 349.9050 14.46862425466893 ORBCOMM FM03 1 25158U 98007B 25343.34089445 .00002266 00000+0 83011-3 0 9990 2 25158 107.9638 135.5093 0046401 300.3082 59.3473 14.35011678449165 ORBCOMM FM04 1 25159U 98007C 25343.43458858 .00002381 00000+0 86738-3 0 9996 2 25159 107.9629 139.0422 0042288 297.3947 62.2895 14.35257254449360 ORBCOMM FM17 1 25413U 98046A 25343.52642215 .00001638 00000+0 61253-3 0 9993 2 25413 44.9924 149.8512 0002197 28.3903 331.7063 14.35524774428361 ORBCOMM FM18 1 25414U 98046B 25343.60386725 .00002620 00000+0 88411-3 0 9991 2 25414 44.9929 62.1102 0003058 109.3540 250.7640 14.39140326429513 ORBCOMM FM19 1 25415U 98046C 25343.67292546 .00002551 00000+0 86525-3 0 9993 2 25415 44.9940 64.0500 0001826 114.7857 40.9721 14.38959488429472 ORBCOMM FM20 1 25416U 98046D 25343.61318109 .00001965 00000+0 69510-3 0 9995 2 25416 44.9937 70.2475 0001589 201.7215 158.3566 14.37653733429508 ORBCOMM FM16 1 25417U 98046E 25343.60137660 .00002488 00000+0 83543-3 0 9999 2 25417 44.9937 59.4789 0003419 131.8974 228.2166 14.39516527429521 ORBCOMM FM15 1 25418U 98046F 25343.62184599 .00002411 00000+0 81693-3 0 9995 2 25418 44.9968 65.0620 0003268 133.7546 226.3573 14.39146105429512 ORBCOMM FM14 1 25419U 98046G 25343.59293241 .00002385 00000+0 80188-3 0 9995 2 25419 44.9956 62.9028 0002089 145.2224 214.8762 14.39562964429482 ORBCOMM FM13 1 25420U 98046H 25343.58763078 .00002188 00000+0 76036-3 0 9994 2 25420 44.9971 72.6804 0003603 97.8710 262.2548 14.38185861428480 ORBCOMM FM21 1 25475U 98053A 25343.49843368 .00001584 00000+0 56778-3 0 9993 2 25475 45.0063 159.0358 0001440 54.8088 305.2895 14.37783408422472 ORBCOMM FM22 1 25476U 98053B 25343.47132967 .00002055 00000+0 70602-3 0 9994 2 25476 45.0056 152.5295 0002862 41.2478 318.8587 14.38952623422516 ORBCOMM FM23 1 25477U 98053C 25343.47411005 .00001754 00000+0 62094-3 0 9999 2 25477 45.0063 160.9972 0002274 37.9575 322.1433 14.38021694422622 ORBCOMM FM24 1 25478U 98053D 25343.54881227 .00001944 00000+0 67452-3 0 9999 2 25478 45.0055 157.3239 0002080 50.9839 309.1195 14.38639177422691 ORBCOMM FM25 1 25479U 98053E 25343.52378099 .00001907 00000+0 66297-3 0 9991 2 25479 45.0052 155.7406 0004449 54.5112 305.6151 14.38609027422988 ORBCOMM FM26 1 25480U 98053F 25343.51529768 .00001671 00000+0 59867-3 0 9996 2 25480 45.0045 153.5478 0006390 68.3724 291.7805 14.37584096422872 ORBCOMM FM27 1 25481U 98053G 25343.22971722 .00001997 00000+0 69164-3 0 9998 2 25481 45.0029 157.2714 0000993 91.9939 268.1024 14.38640679422874 ORBCOMM FM28 1 25482U 98053H 25343.59471641 .00002093 00000+0 72066-3 0 9997 2 25482 45.0046 92.8195 0004246 121.3012 238.8252 14.38775632423614 ORBCOMM FM30 1 25980U 99065A 25343.41571969 .00001926 00000+0 68067-3 0 9999 2 25980 45.0324 340.0466 0005830 188.0241 172.0515 14.37753391359660 ORBCOMM FM31 1 25981U 99065B 25343.39716829 .00001893 00000+0 67095-3 0 9996 2 25981 45.0237 333.5885 0004416 224.0317 136.0180 14.37680292359218 ORBCOMM FM32 1 25982U 99065C 25343.48984480 .00002023 00000+0 72704-3 0 9996 2 25982 45.0159 350.8996 0006680 209.0598 150.9879 14.36737980359807 ORBCOMM FM33 1 25983U 99065D 25343.45290097 .00001809 00000+0 60744-3 0 9990 2 25983 45.0270 245.4047 0007683 233.0690 126.9456 14.40518242361330 ORBCOMM FM36 1 25984U 99065E 25343.08806440 .00001786 00000+0 62287-3 0 9993 2 25984 45.0394 341.7215 0000576 104.0011 256.0902 14.38693273359606 ORBCOMM FM35 1 25985U 99065F 25343.47417999 .00002104 00000+0 74148-3 0 9998 2 25985 45.0400 346.3485 0004585 224.2331 135.8151 14.37606953360003 ORBCOMM FM34 1 25986U 99065G 25343.44067577 .00001787 00000+0 63772-3 0 9996 2 25986 45.0400 346.9742 0002783 179.5995 180.4856 14.37558734360115 ORBCOMM FM38 1 33060U 08031A 25343.34227251 .00003054 00000+0 40518-3 0 9999 2 33060 48.4376 200.0210 0004396 79.0860 281.0551 14.82241451940729 ORBCOMM FM41 1 33061U 08031B 25343.67126049 .00003022 00000+0 40541-3 0 9990 2 33061 48.4413 206.8516 0003584 62.8076 325.9416 14.81800968940251 ORBCOMM FM29 1 33062U 08031C 25343.39823041 .00003375 00000+0 44812-3 0 9992 2 33062 48.4369 215.7287 0005331 60.2551 109.6858 14.81945995940121 ORBCOMM FM39 1 33063U 08031D 25343.43901365 .00003210 00000+0 44342-3 0 9990 2 33063 48.4390 241.7893 0006395 28.0679 332.0580 14.80387967939751 ORBCOMM FM37 1 33064U 08031E 25343.41662160 .00002889 00000+0 39999-3 0 9999 2 33064 48.4378 230.1441 0004877 48.7106 121.5167 14.80586340940004 ORBCOMM FM40 1 33065U 08031F 25343.38716597 .00003594 00000+0 46274-3 0 9998 2 33065 48.4390 211.2584 0005828 66.9080 103.0965 14.83082255940153 VESSELSAT 1 1 37840U 11058C 25343.64764230 .00000429 00000+0 89477-4 0 9999 2 37840 19.9608 112.1372 0013612 317.2888 42.6458 14.11397801731122 ORBCOMM FM109 1 40086U 14040A 25343.50782601 .00001471 00000+0 34968-3 0 9998 2 40086 47.0035 268.0896 0001264 43.1411 316.9573 14.58535419606657 ORBCOMM FM107 1 40087U 14040B 25343.52727792 .00001405 00000+0 33503-3 0 9992 2 40087 47.0053 268.8882 0001447 336.8646 23.2175 14.58611604606732 ORBCOMM FM106 1 40088U 14040C 25343.62627726 .00002378 00000+0 42271-3 0 9992 2 40088 47.0599 76.3641 0016461 165.7254 194.4105 14.70016476609286 ORBCOMM FM111 1 40089U 14040D 25343.46381348 .00005474 00000+0 61301-3 0 9997 2 40089 47.0003 263.2058 0029236 312.1496 47.6918 14.87681833616312 ORBCOMM FM104 1 40090U 14040E 25342.95496910 .00001303 00000+0 32419-3 0 9999 2 40090 47.0058 307.3168 0017115 283.9909 75.9073 14.56997689606100 ORBCOMM FM103 1 40091U 14040F 25343.50940252 .00001316 00000+0 31678-3 0 9995 2 40091 47.0056 269.6293 0002009 344.8528 15.2297 14.58526348589699 ORBCOMM FM114 1 41179U 15081A 25343.59474897 .00001099 00000+0 27028-3 0 9997 2 41179 47.0007 178.1811 0001566 70.6481 289.4574 14.58557539530079 ORBCOMM FM119 1 41180U 15081B 25343.59066826 .00001414 00000+0 33787-3 0 9998 2 41180 47.0005 87.5591 0000946 182.7162 177.3719 14.58493518531320 ORBCOMM FM105 1 41181U 15081C 25342.70671603 .00000740 00000+0 25287-3 0 9993 2 41181 47.0005 113.7302 0001337 4.2380 355.8512 14.45398949525996 ORBCOMM FM110 1 41182U 15081D 25343.58475454 .00001311 00000+0 31539-3 0 9999 2 41182 47.0001 177.7340 0002793 276.4671 83.5897 14.58570027529941 ORBCOMM FM118 1 41183U 15081E 25343.27671060 .00000964 00000+0 24161-3 0 9993 2 41183 47.0023 179.4865 0003087 238.9929 121.0653 14.58565077530009 ORBCOMM FM112 1 41184U 15081F 25343.55342214 .00002268 00000+0 51908-3 0 9999 2 41184 46.9986 86.7150 0000824 48.3696 311.7260 14.58569954531262 ORBCOMM FM113 1 41185U 15081G 25343.59916553 .00001661 00000+0 38984-3 0 9992 2 41185 47.0007 86.8538 0000464 72.4376 287.6561 14.58562311531257 ORBCOMM FM115 1 41186U 15081H 25343.19228859 .00001643 00000+0 35208-3 0 9990 2 41186 46.9991 287.0051 0000511 209.5170 150.5688 14.62910799533398 ORBCOMM FM108 1 41187U 15081J 25343.42467169 .00001995 00000+0 46124-3 0 9995 2 41187 47.0052 359.1845 0002068 15.0612 345.0335 14.58543893532370 ORBCOMM FM117 1 41188U 15081K 25343.45907418 .00001889 00000+0 43844-3 0 9993 2 41188 47.0022 357.7223 0002310 27.3470 332.7537 14.58570022532427 ORBCOMM FM116 1 41189U 15081L 25343.64487324 .00001636 00000+0 38469-3 0 9991 2 41189 47.0023 86.6138 0002508 254.5899 105.4710 14.58561790531261